sat.trackr.live / text

‹ back to catalog

STARLINK-32096

NORAD 59698 · 2024-086S

PAYLOAD ACTIVE UNKNOWN

§ Identity

Operator
Country
US
Launch date
2024-05-08
Launch site
AFETR
Launch vehicle
Mass (kg)
RCS (m²)

Purposes: comms

External: N2YO · Heavens-Above · Gunter

§ Orbital elements

Epoch: 2026-05-24T20:55:59.888352Z

Period
94.27 min
Inclination
43.0039°
Eccentricity
0.0001344
Mean motion
15.27583847 rev/d
Perigee alt
482.1 km
Apogee alt
484.0 km
Semi-major
6,861.2 km
B*
2.5049e-5
RAAN
349.6239°
Arg perigee
275.6942°
Mean anomaly
84.3756°
Rev number
11,576

§ Raw data

STARLINK-320961 59698U 24086S   26144.87222093  .00000427  00000+0  25049-4 0  99932 59698  43.0039 349.6239 0001344 275.6942  84.3756 15.27583847115764

JSON: /api/v1/satellites/59698 · /tle

For live sub-satellite position, see the globe view (requires WebGL).

§ Visibility from observer

Set your observer location to see the next 7 days of passes ≥ 10°. The values pass through the URL so the page stays shareable.

No JS? Fill the form by hand. The geolocation button needs JavaScript.